Regional Weather Roundup
Issued by NWS

Home | Current Version | Previous Version | Graphics & Text | Print | Product List | Glossary On
Versions: 1 2 3 4 5 6 7 8 9 10 11 12 13 14 15 16 17 18 19 20 21 22 23 24 25 26 27 28 29 30 31 32 33 34 35 36 37 38 39 40 41 42 43 44 45 46 47 48 49 50
000
ASUS43 KDMX 281103
RWRIA

WEATHER ROUNDUP FOR IOWA
NATIONAL WEATHER SERVICE DES MOINES IA
600 AM CDT SAT MAY 28 2016

NOTE: "FAIR" INDICATES FEW OR NO CLOUDS BELOW 12,000 FEET WITH NO
SIGNIFICANT WEATHER AND/OR OBSTRUCTIONS TO VISIBILITY.

* - THESE STATIONS ARE NOT NWS STATIONS...THUS NOT UNDER NWS
QUALITY CONTROL.  THEY ALSO DO NOT REPORT WEATHER SUCH
AS PRECIPITATION OR FOG.

IAZ001>003-012>014-020>022-031>034-043>046-281200-
   NORTHWEST IOWA

CITY           SKY/WX    TMP DP  RH WIND       PRES   REMARKS
CARROLL *      CLOUDY    63  63 100 SW5       29.72F
CHEROKEE *     DRIZZLE   63  63 100 SE3       29.72S
DENISON *      CLOUDY    63  61  94 SE6       29.69F
LE MARS *      LGT RAIN  63  61  94 E7        29.73R
ORANGE CITY *  CLOUDY    63  63 100 E6        29.72S FOG
SHELDON *      CLOUDY    63  63 100 E5        29.72S
SIOUX CITY     LGT RAIN  63  60  90 S8        29.72R
SPENCER        LGT RAIN  63  61  93 NE5       29.74R
STORM LAKE *   CLOUDY    63  61  94 S8        29.73F
$$

IAZ055>058-069>071-079>083-090>094-281200-
   SOUTHWEST IOWA

CITY           SKY/WX    TMP DP  RH WIND       PRES   REMARKS
ATLANTIC *     CLOUDY    63  61  94 S5        29.73R
AUDUBON *        N/A     61  57  88 CALM      29.74S
CLARINDA *       N/A     59  59 100 MISG      29.76R
COUNCIL BLFS * PTCLDY    59  59 100 SW8       29.75R
CRESTON *      FOG       61  61 100 SE5       29.77R VSB 1
HARLAN  *      CLOUDY    61  61 100 S5        29.75S
LAMONI         CLOUDY    62  62 100 SE6       29.76R
RED OAK *      CLEAR     59  59 100 S6        29.74R
SHENANDOAH *   MOCLDY    59  59 100 W3        29.75S
$$

IAZ047>049-059>061-072>074-084-281200-
   CENTRAL IOWA

CITY           SKY/WX    TMP DP  RH WIND       PRES   REMARKS
AMES           CLOUDY    62  61  96 S6        29.75R
ANKENY *       CLOUDY    63  63 100 CALM      29.74S
BOONE *        CLOUDY    63  63 100 SW7       29.74R
CHARITON *     CLOUDY    63  63 100 SE6       29.75S
DES MOINES     CLOUDY    63  59  87 SE3       29.73F
GRINNELL*      CLOUDY    61  61 100 S5        29.76R
KNOXVILLE *    FOG       61  61 100 CALM      29.75R VSB 1
MARSHALLTOWN   CLOUDY    61  60  97 SW5       29.75R
NEWTON *       CLOUDY    63  63 100 S5        29.76R
PELLA *        CLOUDY    62  61  97 S5        29.77R FOG
PERRY *        DRIZZLE   63  63 100 S8        29.74R
$$

IAZ004>006-015-016-023>025-035-036-281200-
   NORTH CENTRAL IOWA

CITY           SKY/WX    TMP DP  RH WIND       PRES   REMARKS
ALGONA *       CLOUDY    64  63  94 SE5       29.75R
CLARION *      CLOUDY    63  63 100 CALM      29.75R
ESTHERVILLE    CLOUDY    64  63  96 CALM      29.74R
FORT DODGE *   CLOUDY    63  59  88 CALM      29.75S
MASON CITY     CLOUDY    61  61 100 SW3       29.75R FOG
FOREST CITY *  MOCLDY    61  61 100 CALM      29.75R FOG
WEBSTER CITY * CLOUDY    63  63 100 CALM      29.73S
IOWA FALLS *   CLOUDY    66  64  94 S8        29.75R FOG
$$

IAZ007>011-017>019-026>030-037>042-050>054-066-281200-
   NORTHEAST IOWA

CITY           SKY/WX    TMP DP  RH WIND       PRES   REMARKS
CEDAR RAPIDS   PTCLDY    61  61 100 S6        29.75R
CHARLES CITY * CLOUDY    64  64 100 S5        29.74S FOG
CLINTON *      CLOUDY    68  64  87 S16       29.79R
DECORAH *      FOG       66  66 100 CALM      29.73R VSB<1/4
DUBUQUE        CLOUDY    63  63 100 SW10      29.76R FOG
MONTICELLO *   CLOUDY    63  61  94 CALM      29.75S
OELWEIN *      CLOUDY    64  64 100 S5        29.74F
WATERLOO       MOCLDY    62  60  93 S3        29.73S
$$

IAZ064-065-067-068-078-281200-
   EAST CENTRAL IOWA

CITY           SKY/WX    TMP DP  RH WIND       PRES   REMARKS
DAVENPORT      MOCLDY    67  64  90 S14       29.79R
IOWA CITY      CLEAR     61  60  97 SE3       29.78R FOG
MT. PLEASANT * CLOUDY    66  66 100 S5        29.79R
MUSCATINE *    MOCLDY    64  63  94 S7        29.79R
QUAD CITIES    MOCLDY    69  64  84 SW7       29.79R
$$

IAZ062-063-075>077-085>089-095>099-281200-
   SOUTHEAST IOWA

CITY           SKY/WX    TMP DP  RH WIND       PRES   REMARKS
BURLINGTON     CLOUDY    67  67 100 SW8       29.80R
FAIRFIELD *      N/A    N/A N/A N/A MISG        N/A
FORT MADISON * CLOUDY    66  66 100 S3        29.81R
KEOKUK *       CLOUDY    68  68 100 S9G16     29.79R
OSKALOOSA *      N/A     61  59  94 S6        29.77R FOG
OTTUMWA        CLOUDY    63  62  97 SE6       29.77R
WASHINGTON *   MOCLDY    63 N/A N/A S7        29.79R
$$

ABBREVIATIONS USED IN REMARKS
   TC - TEMPERATURES IN CELSIUS
  WCI - WIND CHILL INDEX
   HX - HEAT INDEX
  VSB - VISIBILITY
$$





USA.gov is the U.S. government's official web portal to all federal, state and local government web resources and services.